TimeAST,TemperatureF,Dew PointF,Humidity,Sea Level PressureIn,VisibilityMPH,Wind Direction,Wind SpeedMPH,Gust SpeedMPH,PrecipitationIn,Events,Conditions,WindDirDegrees,DateUTC
12:56 AM,75.0,69.1,82,29.90,10.0,Calm,Calm,-,N/A,,Partly Cloudy,0,2013-11-24 04:56:00
1:56 AM,75.0,69.1,82,29.89,10.0,Calm,Calm,-,N/A,,Partly Cloudy,0,2013-11-24 05:56:00
2:56 AM,73.9,69.1,85,29.88,10.0,Calm,Calm,-,N/A,,Partly Cloudy,0,2013-11-24 06:56:00
3:56 AM,73.9,68.0,82,29.88,10.0,Calm,Calm,-,N/A,,Partly Cloudy,0,2013-11-24 07:56:00
4:56 AM,73.9,69.1,85,29.89,10.0,Calm,Calm,-,N/A,,Partly Cloudy,0,2013-11-24 08:56:00
5:56 AM,73.0,69.1,87,29.91,10.0,Calm,Calm,-,N/A,,Partly Cloudy,0,2013-11-24 09:56:00
6:56 AM,73.0,69.1,87,29.93,10.0,Calm,Calm,-,N/A,,Partly Cloudy,0,2013-11-24 10:56:00
7:56 AM,75.9,69.1,79,29.95,10.0,Calm,Calm,-,N/A,,Partly Cloudy,0,2013-11-24 11:56:00
8:56 AM,80.1,70.0,71,29.96,10.0,Calm,Calm,-,N/A,,Partly Cloudy,0,2013-11-24 12:56:00
9:56 AM,82.9,71.1,67,29.98,10.0,ENE,6.9,-,N/A,,Partly Cloudy,60,2013-11-24 13:56:00
10:56 AM,82.0,70.0,67,29.96,10.0,ENE,11.5,-,N/A,,Scattered Clouds,60,2013-11-24 14:56:00
11:56 AM,84.9,71.1,63,29.94,10.0,NE,15.0,-,N/A,,Partly Cloudy,50,2013-11-24 15:56:00
12:56 PM,84.0,71.1,65,29.91,10.0,NE,15.0,-,N/A,,Partly Cloudy,50,2013-11-24 16:56:00
1:56 PM,84.9,71.1,63,29.90,10.0,ENE,17.3,-,N/A,,Partly Cloudy,60,2013-11-24 17:56:00
2:56 PM,84.0,72.0,67,29.89,10.0,ENE,15.0,-,N/A,,Partly Cloudy,70,2013-11-24 18:56:00
3:56 PM,82.9,71.1,67,29.89,10.0,ENE,13.8,-,N/A,,Scattered Clouds,70,2013-11-24 19:56:00
4:56 PM,81.0,73.0,77,29.90,10.0,ENE,10.4,-,N/A,,Scattered Clouds,70,2013-11-24 20:56:00
5:56 PM,80.1,72.0,76,29.91,10.0,East,8.1,-,N/A,,Scattered Clouds,90,2013-11-24 21:56:00
6:56 PM,80.1,73.0,79,29.93,10.0,East,5.8,-,N/A,,Scattered Clouds,80,2013-11-24 22:56:00
7:56 PM,78.1,66.9,68,29.94,10.0,NE,6.9,-,N/A,,Partly Cloudy,40,2013-11-24 23:56:00
8:56 PM,79.0,71.1,77,29.95,10.0,Calm,Calm,-,N/A,,Partly Cloudy,0,2013-11-25 00:56:00
9:56 PM,78.1,73.0,84,29.96,10.0,Calm,Calm,-,N/A,,Partly Cloudy,0,2013-11-25 01:56:00
10:56 PM,78.1,73.0,84,29.97,10.0,SSW,3.5,-,N/A,,Scattered Clouds,200,2013-11-25 02:56:00
11:56 PM,78.1,72.0,81,29.97,10.0,Calm,Calm,-,N/A,,Scattered Clouds,0,2013-11-25 03:56:00